Tracking 28126 objects as of 1-Oct-2023
HD Live streaming from Space Station
objects crossing your sky now

STARLINK-3189

Track STARLINK-3189 now!
10-day predictions
STARLINK-3189 is classified as:


NORAD ID: 51464
Int'l Code: 2022-010J
Perigee: 545.6 km
Apogee: 548.1 km
Inclination: 53.2 °
Period: 95.4 minutes
Semi major axis: 6917 km
RCS: Unknown
Launch date: February 3, 2022
Source: United States (US)
Launch site: AIR FORCE EASTERN TEST RANGE (AFETR)
Your satellite tracking list
Your tracking list is empty




NASA's NSSDC Master Catalog

Two Line Element Set (TLE):
1 51464U 22010J   23274.49227775  .00000692  00000-0  61567-4 0  9992
2 51464  53.2173 315.3798 0001810 100.2197 259.8999 15.08845932 92882
Source of the keplerian elements: AFSPC